sat.trackr.live / text

‹ back to catalog

KUIPER-00252

NORAD 67157 · 2025-301AA

PAYLOAD ACTIVE UNKNOWN

§ Identity

Operator
Country
US
Launch date
2025-12-16
Launch site
AFETR
Launch vehicle
Mass (kg)
RCS (m²)

External: N2YO · Heavens-Above · Gunter

§ Orbital elements

Epoch: 2026-09-20T07:39:34.266240Z

Period
97.30 min
Inclination
51.9007°
Eccentricity
0.0000537
Mean motion
14.79936069 rev/d
Perigee alt
629.1 km
Apogee alt
629.9 km
Semi-major
7,007.7 km
B*
2.4219e-4
RAAN
279.9647°
Arg perigee
83.3973°
Mean anomaly
276.7050°
Rev number
4,262

§ Raw data

KUIPER-002521 67157U 25301AA  26263.31914660  .00001626  00000+0  24219-3 0  99912 67157  51.9007 279.9647 0000537  83.3973 276.7050 14.79936069 42627

JSON: /api/v1/satellites/67157 · /tle

For live sub-satellite position, see the globe view (requires WebGL).

§ Visibility from observer

Set your observer location to see the next 7 days of passes ≥ 10°. The values pass through the URL so the page stays shareable.

No JS? Fill the form by hand. The geolocation button needs JavaScript.